sat.trackr.live / text

‹ back to catalog

STARLINK-31918

NORAD 60037 · 2024-111X

PAYLOAD ACTIVE UNKNOWN

§ Identity

Operator
Country
US
Launch date
2024-06-08
Launch site
AFETR
Launch vehicle
Mass (kg)
RCS (m²)

Purposes: comms

External: N2YO · Heavens-Above · Gunter

§ Orbital elements

Epoch: 2026-09-21T03:32:02.227200Z

Period
93.85 min
Inclination
53.1604°
Eccentricity
0.0001104
Mean motion
15.34371297 rev/d
Perigee alt
462.0 km
Apogee alt
463.5 km
Semi-major
6,840.9 km
B*
-7.2652e-5
RAAN
246.6983°
Arg perigee
92.0046°
Mean anomaly
268.1083°
Rev number
12,890

§ Raw data

STARLINK-319181 60037U 24111X   26264.14724800 -.00002828  00000+0 -72652-4 0  99982 60037  53.1604 246.6983 0001104  92.0046 268.1083 15.34371297128902

JSON: /api/v1/satellites/60037 · /tle

For live sub-satellite position, see the globe view (requires WebGL).

§ Visibility from observer

Set your observer location to see the next 7 days of passes ≥ 10°. The values pass through the URL so the page stays shareable.

No JS? Fill the form by hand. The geolocation button needs JavaScript.